Content
SEND FEEDBACK

Daily
Averages
Monthly
Summary
United States of America

GLEN CANYON CITY, UTAH


Home > North America > United States > Utah
Elevation: 4133 feet     Latitude: 37 05N     Longitude: 111 40W

WEATHER
 
SELECT A DAY
Number of Records: 194,800;   Date Range: 1/1/95 - 8/28/14
 
SHARE

PRINT THIS DATA

[ ← Previous Day ]
WEATHER ALMANAC - MARCH 3, 2013
[ Next Day → ]
[ °C ]   °F
Weather ElementAverageHighLow
Temperature55.2 °F68 °F (3:53 pm)44.1 °F (3:53 am)
Dewpoint24.3 °F28 °F (9:53 pm)21.9 °F (12:53 pm)
Humidity31.5 %43 % (3:53 am)19 % (3:53 pm)
Barometer29.86 in30.04 in (1:53 am)29.72 in (4:53 pm)
Wind Speed3.5 mph10.4 mph (5:53 pm)
Wind Gust20.7 mph (6:53 pm)
Weather ElementAverage
Visibility10 mi
Wind DirectionE (92.2 °)

Weather ElementTotal
Precipitation---
Heating Degree Days9 (Base 65)
Growing Degree Days6.1 (Base 50)
Averaged from 23 records on March 3, 2013
WEATHER CONDITIONS BREAKOUT
WIND DIRECTION BREAKOUT
WEATHER BY HOUR - MARCH 3, 2013
[ °C ]   °F
Local TimeTemperatureDewpointHumidityBarometerVisibilityWind DirectionWind SpeedGust SpeedPrecipitationEventsConditions
1:53 AM46.9 °F23.0 °F39 %30.04 in10.0 miCalmClear
2:53 AM46.0 °F23.0 °F40 %30.02 in10.0 miCalmClear
3:53 AM44.1 °F23.0 °F43 %29.98 in10.0 miCalmClear
4:53 AM45.0 °F23.0 °F42 %29.97 in10.0 miCalmClear
5:53 AM45.0 °F23.0 °F42 %29.97 in10.0 miWSW (250°)3.5 mphClear
6:53 AM44.1 °F23.0 °F43 %29.95 in10.0 miCalmClear
7:53 AM45.0 °F23.0 °F42 %29.99 in10.0 miCalmClear
8:53 AM48.0 °F24.1 °F39 %29.98 in10.0 miCalmScattered Clouds
9:53 AM53.1 °F23.0 °F31 %29.94 in10.0 miCalmMostly Cloudy
10:53 AM53.1 °F25.0 °F34 %29.93 in10.0 miNNE (30°)4.6 mphScattered Clouds
11:53 AM57.9 °F24.1 °F27 %29.89 in10.0 miNE (50°)3.5 mphScattered Clouds
12:53 PM61.0 °F21.9 °F22 %29.84 in10.0 miENE (70°)5.8 mphClear
1:53 PM63.0 °F23.0 °F22 %29.78 in10.0 miNorth (10°)6.9 mphClear
2:53 PM64.0 °F23.0 °F21 %29.77 in10.0 miCalmMostly Cloudy
3:53 PM68.0 °F24.1 °F19 %29.75 in10.0 miVariable3.5 mphMostly Cloudy
4:53 PM68.0 °F24.1 °F19 %29.72 in10.0 miWSW (240°)3.5 mphOvercast
5:53 PM64.9 °F26.1 °F23 %29.73 in10.0 miWest (270°)10.4 mph16.1 mphMostly Cloudy
6:53 PM63.0 °F26.1 °F25 %29.74 in10.0 miWest (270°)10.4 mph20.7 mphClear
7:53 PM61.0 °F27.0 °F27 %29.76 in10.0 miWest (260°)6.9 mphClear
8:53 PM60.1 °F27.0 °F28 %29.75 in10.0 miWSW (250°)3.5 mphScattered Clouds
9:53 PM55.9 °F28.0 °F34 %29.75 in10.0 miSSW (210°)6.9 mphClear
10:53 PM57.9 °F26.1 °F30 %29.75 in10.0 miVariable5.8 mphClear
11:53 PM54.0 °F25.0 °F33 %29.74 in10.0 miSSW (210°)4.6 mphPartly Cloudy
Hourly data recorded from KPGA, located miles away from Glen Canyon City, Utah







STORIES FROM OUR PARTNERS